• în România
  • Lista ţărilor
  • Pe 7 zile
  • Temperatura apei
  • Hartă satelitară
  • Meteo pe hartă
  • Widget-uri
  • user-avatar
    Intrare

    Meteo pe oră la Dundee

    Astăzi, 18 Februarie, Duminică

    Timp Temperatura Precipitaţii Vânt Presiune Umiditate
    00:00 +1°C° 0 mm 3 m/s 753 mmHg 94%
    01:00 0°C° 0 mm 3 m/s 752 mmHg 94%
    02:00 +1°C° 0 mm 2 m/s 752 mmHg 94%
    03:00 +1°C° 0 mm 2 m/s 752 mmHg 94%
    04:00 +1°C° 0 mm 2 m/s 752 mmHg 93%
    05:00 -1°C° 0 mm 2 m/s 753 mmHg 93%
    06:00 +1°C° 0 mm 1 m/s 753 mmHg 92%
    07:00 +1°C° 0 mm 1 m/s 753 mmHg 91%
    08:00 +2°C° 0 mm 1 m/s 753 mmHg 90%
    09:00 +3°C° 0 mm 1 m/s 753 mmHg 89%
    10:00 +3°C° 0 mm 2 m/s 753 mmHg 87%
    11:00 +4°C° 0 mm 2 m/s 752 mmHg 85%
    12:00 +5°C° 0 mm 2 m/s 752 mmHg 83%
    13:00 +5°C° 0 mm 2 m/s 752 mmHg 85%
    14:00 +5°C° 0 mm 2 m/s 751 mmHg 86%
    15:00 +5°C° 0 mm 2 m/s 751 mmHg 88%
    16:00 +5°C° 0,2 mm 2 m/s 751 mmHg 90%
    17:00 +3°C° 0,2 mm 3 m/s 751 mmHg 93%
    18:00 +3°C° 0,2 mm 3 m/s 750 mmHg 95%
    19:00 +3°C° 0,5 mm 3 m/s 750 mmHg 95%
    20:00 +3°C° 0,5 mm 3 m/s 750 mmHg 96%
    21:00 +3°C° 0,5 mm 3 m/s 750 mmHg 97%
    22:00 +4°C° 0,3 mm 2 m/s 749 mmHg 97%
    23:00 +4°C° 0,3 mm 2 m/s 749 mmHg 97%

    Mâine, 19 Februarie, Luni

    Timp Temperatura Precipitaţii Vânt Presiune Umiditate
    00:00 +4°C° 0,3 mm 2 m/s 749 mmHg 97%
    01:00 +4°C° 0,3 mm 2 m/s 749 mmHg 97%
    02:00 +5°C° 0,3 mm 2 m/s 749 mmHg 97%
    03:00 +5°C° 0,3 mm 2 m/s 749 mmHg 97%
    04:00 +5°C° 0,3 mm 2 m/s 749 mmHg 97%
    05:00 +5°C° 0,3 mm 2 m/s 749 mmHg 96%
    06:00 +5°C° 0,3 mm 2 m/s 749 mmHg 96%
    07:00 +6°C° 0,2 mm 2 m/s 749 mmHg 96%
    08:00 +6°C° 0,2 mm 2 m/s 749 mmHg 96%
    09:00 +6°C° 0,2 mm 2 m/s 750 mmHg 95%
    10:00 +6°C° 0,1 mm 2 m/s 750 mmHg 95%
    11:00 +7°C° 0,1 mm 2 m/s 750 mmHg 94%
    12:00 +7°C° 0,1 mm 2 m/s 750 mmHg 94%
    13:00 +8°C° 0,1 mm 2 m/s 750 mmHg 93%
    14:00 +8°C° 0,1 mm 2 m/s 750 mmHg 92%
    15:00 +8°C° 0,1 mm 2 m/s 750 mmHg 90%
    16:00 +7°C° 0,1 mm 2 m/s 751 mmHg 92%
    17:00 +7°C° 0,1 mm 2 m/s 751 mmHg 93%
    18:00 +6°C° 0,1 mm 2 m/s 751 mmHg 94%
    19:00 +6°C° 0 mm 2 m/s 751 mmHg 94%
    20:00 +6°C° 0 mm 2 m/s 751 mmHg 95%
    21:00 +5°C° 0 mm 2 m/s 751 mmHg 95%
    22:00 +6°C° 0,2 mm 2 m/s 751 mmHg 93%
    23:00 +5°C° 0,2 mm 3 m/s 751 mmHg 91%

    Poimâine, 20 Februarie, Marţi

    Timp Temperatura Precipitaţii Vânt Presiune Umiditate
    00:00 +5°C° 0,2 mm 4 m/s 752 mmHg 90%
    01:00 +5°C° 0,8 mm 4 m/s 752 mmHg 88%
    02:00 +3°C° 0,8 mm 5 m/s 752 mmHg 86%
    03:00 +3°C° 0,8 mm 5 m/s 753 mmHg 85%
    04:00 +3°C° 0,3 mm 5 m/s 753 mmHg 85%
    05:00 +2°C° 0,3 mm 5 m/s 754 mmHg 86%
    06:00 +2°C° 0,3 mm 5 m/s 754 mmHg 86%
    07:00 +2°C° 0 mm 5 m/s 755 mmHg 86%
    08:00 +2°C° 0 mm 5 m/s 756 mmHg 85%
    09:00 +3°C° 0 mm 4 m/s 757 mmHg 85%
    10:00 +3°C° 0 mm 5 m/s 757 mmHg 80%
    11:00 +5°C° 0 mm 5 m/s 758 mmHg 76%
    12:00 +6°C° 0 mm 5 m/s 759 mmHg 72%
    13:00 +6°C° 0 mm 5 m/s 759 mmHg 71%
    14:00 +6°C° 0 mm 4 m/s 759 mmHg 71%
    15:00 +6°C° 0 mm 4 m/s 760 mmHg 70%
    16:00 +5°C° 0 mm 4 m/s 760 mmHg 75%
    17:00 +4°C° 0 mm 3 m/s 761 mmHg 79%
    18:00 +2°C° 0 mm 3 m/s 761 mmHg 84%
    19:00 +2°C° 0 mm 3 m/s 761 mmHg 85%
    20:00 +3°C° 0 mm 2 m/s 762 mmHg 86%
    21:00 +2°C° 0 mm 2 m/s 762 mmHg 87%
    22:00 +2°C° 0 mm 2 m/s 762 mmHg 87%
    23:00 +2°C° 0 mm 2 m/s 763 mmHg 87%

    21 Februarie, Miercuri

    Timp Temperatura Precipitaţii Vânt Presiune Umiditate
    00:00 +1°C° 0 mm 2 m/s 763 mmHg 87%
    01:00 +1°C° 0 mm 2 m/s 763 mmHg 86%
    02:00 +1°C° 0 mm 2 m/s 763 mmHg 86%
    03:00 +1°C° 0 mm 2 m/s 763 mmHg 85%
    04:00 +1°C° 0 mm 2 m/s 763 mmHg 85%
    05:00 +1°C° 0 mm 2 m/s 763 mmHg 85%
    06:00 +1°C° 0 mm 2 m/s 763 mmHg 84%
    07:00 +1°C° 0 mm 2 m/s 763 mmHg 82%
    08:00 +3°C° 0 mm 1 m/s 763 mmHg 80%
    09:00 +3°C° 0 mm 1 m/s 763 mmHg 78%
    10:00 +5°C° 0 mm 1 m/s 763 mmHg 74%
    11:00 +6°C° 0 mm 1 m/s 763 mmHg 70%
    12:00 +7°C° 0 mm 1 m/s 763 mmHg 66%
    13:00 +7°C° 0 mm 1 m/s 762 mmHg 66%
    14:00 +7°C° 0 mm 1 m/s 762 mmHg 66%
    15:00 +7°C° 0 mm 1 m/s 762 mmHg 66%
    16:00 +6°C° 0 mm 1 m/s 762 mmHg 72%
    17:00 +4°C° 0 mm 1 m/s 762 mmHg 78%
    18:00 +3°C° 0 mm 1 m/s 761 mmHg 84%
    19:00 +3°C° 0 mm 1 m/s 762 mmHg 85%
    20:00 +2°C° 0 mm 1 m/s 762 mmHg 87%
    21:00 +2°C° 0 mm 1 m/s 762 mmHg 88%
    22:00 +2°C° 0 mm 1 m/s 762 mmHg 89%
    23:00 +2°C° 0 mm 1 m/s 762 mmHg 89%

    22 Februarie, Joi

    Timp Temperatura Precipitaţii Vânt Presiune Umiditate
    00:00 +2°C° 0 mm 1 m/s 762 mmHg 90%
    01:00 +2°C° 0 mm 1 m/s 761 mmHg 90%
    02:00 +2°C° 0 mm 1 m/s 761 mmHg 91%
    03:00 +2°C° 0 mm 1 m/s 761 mmHg 91%
    04:00 +1°C° 0 mm 1 m/s 761 mmHg 92%
    05:00 +1°C° 0 mm 1 m/s 760 mmHg 92%
    06:00 +1°C° 0 mm 1 m/s 760 mmHg 93%
    07:00 +2°C° 0 mm 1 m/s 760 mmHg 92%
    08:00 +1°C° 0 mm 2 m/s 760 mmHg 91%
    09:00 +2°C° 0 mm 2 m/s 760 mmHg 90%
    10:00 +3°C° 0 mm 2 m/s 760 mmHg 86%
    11:00 +3°C° 0 mm 3 m/s 760 mmHg 81%
    12:00 +3°C° 0 mm 3 m/s 760 mmHg 76%
    13:00 +4°C° 0 mm 3 m/s 760 mmHg 75%
    14:00 +4°C° 0 mm 3 m/s 759 mmHg 74%
    15:00 +4°C° 0 mm 3 m/s 759 mmHg 73%
    16:00 +3°C° 0 mm 3 m/s 759 mmHg 78%
    17:00 +2°C° 0 mm 3 m/s 759 mmHg 83%
    18:00 +1°C° 0 mm 3 m/s 759 mmHg 89%
    19:00 -1°C° 0 mm 4 m/s 759 mmHg 89%
    20:00 -1°C° 0 mm 4 m/s 759 mmHg 89%
    21:00 -1°C° 0 mm 4 m/s 759 mmHg 89%
    22:00 -1°C° 0 mm 4 m/s 759 mmHg 89%
    23:00 -1°C° 0 mm 4 m/s 759 mmHg 90%

    23 Februarie, Vineri

    Timp Temperatura Precipitaţii Vânt Presiune Umiditate
    00:00 -1°C° 0 mm 4 m/s 759 mmHg 90%
    01:00 -1°C° 0 mm 3 m/s 759 mmHg 90%
    02:00 -1°C° 0 mm 3 m/s 759 mmHg 90%
    03:00 -1°C° 0 mm 3 m/s 758 mmHg 91%
    04:00 -1°C° 0 mm 3 m/s 758 mmHg 91%
    05:00 -1°C° 0 mm 3 m/s 758 mmHg 91%
    06:00 -2°C° 0 mm 2 m/s 758 mmHg 91%
    07:00 -1°C° 0 mm 2 m/s 758 mmHg 88%
    08:00 +1°C° 0 mm 2 m/s 759 mmHg 85%
    09:00 +1°C° 0 mm 2 m/s 759 mmHg 82%
    10:00 +1°C° 0 mm 3 m/s 759 mmHg 78%
    11:00 +2°C° 0 mm 3 m/s 759 mmHg 73%
    12:00 +3°C° 0 mm 3 m/s 759 mmHg 68%
    13:00 +3°C° 0 mm 4 m/s 759 mmHg 68%
    14:00 +3°C° 0 mm 4 m/s 759 mmHg 68%
    15:00 +4°C° 0 mm 4 m/s 759 mmHg 67%
    16:00 +3°C° 0 mm 4 m/s 759 mmHg 74%
    17:00 +1°C° 0 mm 4 m/s 759 mmHg 80%
    18:00 0°C° 0 mm 4 m/s 759 mmHg 86%
    19:00 -1°C° 0 mm 4 m/s 760 mmHg 88%
    20:00 -1°C° 0 mm 4 m/s 760 mmHg 89%
    21:00 -1°C° 0 mm 4 m/s 760 mmHg 91%
    22:00 -2°C° 0 mm 4 m/s 761 mmHg 90%
    23:00 -1°C° 0 mm 3 m/s 761 mmHg 90%
    Arată mai mult